Weather History for Imperial Beach, CA

Change the Weather History Date:

Sunday, October 6, 2013

  Actual Average Record
Temperature  
Mean Temperature 70 °F -  
Max Temperature 88 °F 69 °F 88 °F (2013)
Min Temperature 54 °F 59 °F 53 °F (2010)
Cooling Degree Days 5    
Growing Degree Days 20 (Base 50)    
Moisture  
Dew Point 38 °F    
Average Humidity 41    
Maximum Humidity 78    
Minimum Humidity 10    
Precipitation  
Precipitation 0.00 in - - ()
Sea Level Pressure  
Sea Level Pressure 30.01 in    
Wind  
Wind Speed 7 mph (NE)    
Max Wind Speed 17 mph    
Max Gust Speed -    
Visibility 10 miles    
Events      
Averages and records for this station are not official NWS values.
T = Trace of Precipitation, MM = Missing Value Source: NWS Daily Summary

Daily Weather History Graph

Daily Weather History Graph

Search for Another Location

Airport:

Trip Planner

Search our weather history database for the weather conditions in past years. The results will help you decide how hot, cold, wet, or windy it might be!

Date:

Astronomy

Oct. 06, 2013 Rise Set
Actual Time 6:46 AM PDT 6:26 PM PDT
Civil Twilight 6:21 AM PDT 6:50 PM PDT
Nautical Twilight 5:53 AM PDT 7:19 PM PDT
Astronomical Twilight 5:24 AM PDT 7:47 PM PDT
Moon 8:27 AM PDT (10/6) 7:37 PM PDT (10/6)
Length of Visible Light 12h 29m
Length of Day
11h 40m
Waxing Crescent, 4% of the Moon is Illuminated
Oct 6
Waxing Crescent
Oct 11
First Quarter
Oct 18
Full
Oct 26
Last Quarter
Nov 3
New

Hourly Weather History & Observations

Time (PDT) Temp. Dew Point Humidity Pressure Visibility Wind Dir Wind Speed Gust Speed Precip Events Conditions
12:56 AM 55.0 °F 37.9 °F 53% 30.06 in 10.0 mi East 6.9 mph - N/A   Clear
1:56 AM 54.0 °F 36.0 °F 51% 30.06 in 10.0 mi East 4.6 mph - N/A   Clear
2:56 AM 54.0 °F 34.0 °F 47% 30.06 in 10.0 mi East 5.8 mph - N/A   Clear
3:56 AM 54.0 °F 33.1 °F 45% 30.05 in 10.0 mi ENE 4.6 mph - N/A   Clear
4:56 AM 55.9 °F 28.9 °F 36% 30.04 in 10.0 mi East 6.9 mph - N/A   Clear
5:56 AM 57.0 °F 28.0 °F 33% 30.04 in 10.0 mi East 10.4 mph - N/A   Clear
6:56 AM 57.9 °F 27.0 °F 31% 30.05 in 10.0 mi East 9.2 mph - N/A   Clear
7:56 AM 64.0 °F 28.9 °F 27% 30.05 in 10.0 mi East 9.2 mph - N/A   Clear
8:56 AM 75.9 °F 26.1 °F 16% 30.06 in 10.0 mi East 5.8 mph - N/A   Clear
9:56 AM 84.9 °F 21.0 °F 10% 30.06 in 10.0 mi East 5.8 mph - N/A   Clear
10:56 AM 82.9 °F 35.1 °F 18% 30.05 in 10.0 mi WNW 10.4 mph - N/A   Clear
11:56 AM 84.0 °F 26.1 °F 12% 30.03 in 10.0 mi WNW 10.4 mph - N/A   Clear
12:56 PM 86.0 °F 25.0 °F 11% 30.00 in 10.0 mi NW 15.0 mph - N/A   Clear
1:56 PM 86.0 °F 30.9 °F 14% 29.97 in 10.0 mi NNW 17.3 mph - N/A   Clear
2:56 PM 86.0 °F 32.0 °F 14% 29.96 in 10.0 mi NNW 16.1 mph - N/A   Clear
3:56 PM 77.0 °F 57.9 °F 52% 29.96 in 10.0 mi WNW 6.9 mph - N/A   Clear
4:56 PM 79.0 °F 52.0 °F 39% 29.95 in 10.0 mi WNW 9.2 mph - N/A   Clear
5:56 PM 73.9 °F 55.9 °F 53% 29.96 in 10.0 mi WNW 11.5 mph - N/A   Clear
6:56 PM 69.1 °F 55.9 °F 63% 29.96 in 10.0 mi Calm Calm - N/A   Clear
7:56 PM 64.0 °F 52.0 °F 65% 29.97 in 10.0 mi Calm Calm - N/A   Clear
8:56 PM 59.0 °F 48.0 °F 67% 29.98 in 10.0 mi WSW 3.5 mph - N/A   Clear
9:56 PM 57.9 °F 51.1 °F 78% 29.99 in 10.0 mi Calm Calm - N/A   Clear
10:56 PM 55.9 °F 48.9 °F 77% 29.99 in 10.0 mi Calm Calm - N/A   Clear
11:56 PM 59.0 °F 48.0 °F 67% 29.97 in 10.0 mi ESE 3.5 mph - N/A   Clear